Overview Statistics Trail Chart Weather Telemetry Raw packets
 

This is the latest recevied weather packets stored in our database for station/object W6MAF. If no packets are shown the sender has not sent any weather packets the latest 10 day(s).

<< 15 16 17 18 19 20 21 >>
Time Temp. Humidity Pressure Rain* Wind** Luminosity Snow
1788565901 23.89° C 8% - 0 mm 9.83 m/s, 204° - -
1788565603 23.89° C 8% - 0 mm 9.39 m/s, 198° - -
1788565305 23.89° C 8% - 0 mm 8.94 m/s, 188° - -
1788565007 23.89° C 8% - 0 mm 8.94 m/s, 197° - -
1788564710 23.89° C 8% - 0 mm 10.28 m/s, 188° - -
1788564412 23.89° C 9% - 0 mm 8.05 m/s, 190° - -
1788564111 24.44° C 8% - 0 mm 9.39 m/s, 184° - -
1788563813 24.44° C 8% - 0 mm 10.28 m/s, 181° - -
1788563515 24.44° C 6% - 0 mm 7.15 m/s, 184° - -
1788563218 24.44° C 8% - 0 mm 8.05 m/s, 152° - -
1788562622 24.44° C 8% - 0 mm 8.94 m/s, 177° - -
1788562321 24.44° C 8% - 0 mm 9.83 m/s, 170° - -
1788562024 24.44° C 7% - 0 mm 8.94 m/s, 177° - -
1788561726 24.44° C 7% - 0 mm 7.6 m/s, 165° - -
1788561428 24.44° C 6% - 0 mm 9.39 m/s, 186° - -
1788561130 24.44° C 6% - 0 mm 8.05 m/s, 197° - -
1788560532 24.44° C 6% - 0 mm 9.83 m/s, 195° - -
1788560262 24.44° C 6% - 0 mm 8.05 m/s, 197° - -
1788560016 24.44° C 6% - 0 mm 8.49 m/s, 208° - -
1788559936 24.44° C 6% - 0 mm 8.49 m/s, 208° - -
1788559639 25° C 6% - 0 mm 7.6 m/s, 188° - -
1788559341 25° C 6% - 0 mm 8.94 m/s, 187° - -
1788559043 25° C 6% - 0 mm 7.6 m/s, 194° - -
1788558742 25° C 6% - 0 mm 7.6 m/s, 195° - -
1788558444 25° C 6% - 0 mm 7.15 m/s, 203° - -

* Rain latest hour (hover to see other rain measurements)
** Current wind speed in m/s (hover to see current wind gust speed)